| time (UTC) | temp C | wind direction | speed KPH | gust KPH | rain 1hr cm | rain 24hr cm | rain mn cm | humidity % | barometer mb |
| 20260504044543 | 2 | 298 | 0.0 | 0.0 | 0.00 | 0.05 | 0.00 | 72 | 1010.2 |
| 20260504043055 | 3 | 298 | 0.0 | 0.0 | 0.00 | 0.05 | 0.00 | 69 | 1010.0 |
| 20260504041537 | 3 | 298 | 0.0 | 0.0 | 0.00 | 0.05 | 0.00 | 68 | 1010.1 |
| 20260504040032 | 3 | 298 | 0.0 | 0.0 | 0.00 | 0.05 | 0.00 | 68 | 1009.9 |
| 20260504034530 | 3 | 298 | 0.0 | 0.0 | 0.00 | 0.05 | 0.05 | 67 | 1009.8 |
| 20260504033028 | 4 | 298 | 0.0 | 0.0 | 0.00 | 0.05 | 0.05 | 66 | 1009.8 |
| 20260504031528 | 4 | 298 | 0.0 | 1.6 | 0.00 | 0.05 | 0.05 | 66 | 1009.7 |
| 20260504030034 | 4 | 298 | 0.0 | 0.0 | 0.00 | 0.05 | 0.05 | 66 | 1009.7 |
| 20260504024528 | 4 | 298 | 0.0 | 0.0 | 0.00 | 0.05 | 0.05 | 65 | 1009.6 |
| 20260504023026 | 5 | 298 | 0.0 | 0.0 | 0.00 | 0.05 | 0.05 | 64 | 1009.7 |
| 20260504021525 | 5 | 298 | 0.0 | 1.6 | 0.00 | 0.05 | 0.05 | 63 | 1009.6 |
| 20260504020034 | 5 | 298 | 0.0 | 1.6 | 0.00 | 0.05 | 0.05 | 63 | 1009.6 |
| 20260504014624 | 6 | 298 | 0.0 | 0.0 | 0.00 | 0.05 | 0.05 | 61 | 1009.4 |
| 20260504013030 | 6 | 298 | 0.0 | 1.6 | 0.00 | 0.05 | 0.05 | 60 | 1009.2 |
| 20260504011523 | 6 | 298 | 0.0 | 0.0 | 0.00 | 0.05 | 0.05 | 57 | 1009.1 |
| 20260504010023 | 6 | 298 | 0.0 | 1.6 | 0.00 | 0.05 | 0.05 | 57 | 1009.0 |
| 20260504004536 | 7 | 298 | 0.0 | 1.6 | 0.00 | 0.05 | 0.05 | 57 | 1008.8 |
| 20260504003022 | 7 | 298 | 0.0 | 0.0 | 0.00 | 0.05 | 0.05 | 51 | 1008.7 |
| 20260504001531 | 8 | 298 | 0.0 | 0.0 | 0.00 | 0.05 | 0.05 | 48 | 1008.4 |
| 20260504000021 | 9 | 298 | 1.6 | 9.7 | 0.00 | 0.05 | 0.05 | 45 | 1008.4 |
| 20260503234523 | 9 | 328 | 3.2 | 12.9 | 0.00 | 0.05 | 0.05 | 45 | 1008.2 |
| 20260503233019 | 10 | 300 | 1.6 | 11.3 | 0.00 | 0.05 | 0.05 | 44 | 1008.0 |
| 20260503231521 | 10 | 281 | 6.4 | 14.5 | 0.00 | 0.05 | 0.05 | 43 | 1007.8 |
| 20260503230020 | 10 | 329 | 8.0 | 17.7 | 0.00 | 0.05 | 0.05 | 42 | 1007.7 |
| 20260503224618 | 10 | 317 | 6.4 | 17.7 | 0.00 | 0.05 | 0.05 | 41 | 1007.5 |
| 20260503223016 | 10 | 268 | 12.9 | 22.5 | 0.00 | 0.05 | 0.05 | 40 | 1007.2 |
| 20260503221517 | 10 | 339 | 6.4 | 17.7 | 0.00 | 0.05 | 0.05 | 41 | 1007.1 |
| 20260503220027 | 10 | 329 | 9.7 | 24.1 | 0.00 | 0.05 | 0.05 | 40 | 1006.9 |
| 20260503214528 | 10 | 333 | 6.4 | 16.1 | 0.00 | 0.18 | 0.05 | 43 | 1006.9 |
| 20260503213028 | 10 | 312 | 4.8 | 19.3 | 0.00 | 0.18 | 0.05 | 42 | 1006.8 |
| 20260503211516 | 10 | 309 | 8.0 | 29.0 | 0.00 | 0.18 | 0.05 | 41 | 1006.7 |
| 20260503210017 | 10 | 347 | 8.0 | 29.0 | 0.00 | 0.18 | 0.05 | 40 | 1006.3 |
| 20260503204522 | 10 | 287 | 6.4 | 30.6 | 0.00 | 0.18 | 0.05 | 41 | 1006.2 |
| 20260503203014 | 10 | 329 | 11.3 | 29.0 | 0.00 | 0.18 | 0.05 | 39 | 1005.9 |
| 20260503201510 | 11 | 305 | 8.0 | 22.5 | 0.00 | 0.18 | 0.05 | 41 | 1005.8 |
| 20260503200009 | 10 | 294 | 6.4 | 16.1 | 0.00 | 0.18 | 0.05 | 42 | 1005.8 |
| 20260503194508 | 10 | 340 | 8.0 | 24.1 | 0.00 | 0.18 | 0.05 | 42 | 1005.8 |
| 20260503193007 | 10 | 304 | 4.8 | 12.9 | 0.00 | 0.18 | 0.05 | 45 | 1005.9 |
| 20260503191506 | 10 | 278 | 4.8 | 9.7 | 0.00 | 0.18 | 0.05 | 46 | 1005.9 |
| 20260503190011 | 10 | 346 | 6.4 | 14.5 | 0.00 | 0.18 | 0.05 | 46 | 1005.8 |
| 20260503184504 | 10 | 340 | 6.4 | 17.7 | 0.00 | 0.18 | 0.05 | 48 | 1006.0 |
| 20260503183106 | 10 | 317 | 12.9 | 22.5 | 0.00 | 0.18 | 0.05 | 48 | 1005.9 |
| 20260503181607 | 10 | 338 | 6.4 | 17.7 | 0.00 | 0.18 | 0.05 | 50 | 1006.2 |
| 20260503180055 | 10 | 280 | 4.8 | 19.3 | 0.00 | 0.18 | 0.05 | 53 | 1006.1 |
| 20260503174604 | 10 | 298 | 8.0 | 25.7 | 0.00 | 0.18 | 0.05 | 53 | 1006.1 |
| 20260503173052 | 9 | 343 | 8.0 | 19.3 | 0.00 | 0.18 | 0.05 | 55 | 1006.1 |
| 20260503171550 | 9 | 330 | 6.4 | 19.3 | 0.00 | 0.18 | 0.05 | 59 | 1006.0 |
| 20260503081547 | 5 | 288 | 1.6 | 6.4 | 0.00 | 0.41 | 0.00 | 93 | 1008.0 |
| 20260503071541 | 5 | 291 | 0.0 | 4.8 | 0.00 | 0.41 | 0.00 | 95 | 1008.4 |